{"data":{"norad_id":62076,"epoch":"2026-09-21T20:10:46.246656Z","epoch_age_seconds":65276,"freshness":"FRESH","line1":"1 62076U 24217V   26264.84081304  .00013532  00000+0  41089-3 0  9993","line2":"2 62076  53.1610 347.1252 0001207  71.6474 288.4660 15.34401722103672","mean_motion":15.34401722,"eccentricity":0.0001207,"inclination_deg":53.161,"raan_deg":347.1252,"arg_perigee_deg":71.6474,"mean_anomaly_deg":288.466,"bstar":0.00041089,"rev_number":10367,"period_min":93.847652759608,"perigee_km":461.87243326576,"apogee_km":463.52381086423,"semimajor_km":6840.835122065,"source":"CELESTRAK","updated_at":"2026-09-22T09:00:49.495738Z"}}